| time (UTC) | temp F | wind direction | speed knots | gust knots | rain 1hr in | rain 24hr in | rain mn in | humidity % | barometer mb |
| 20260831234502 | 64 | 124 | 0.0 | 1.7 | 0.00 | 0.03 | 0.00 | 91 | 1015.8 |
| 20260831234002 | 64 | 125 | 0.0 | 1.7 | 0.00 | 0.03 | 0.00 | 91 | 1015.8 |
| 20260831233503 | 64 | 125 | 0.0 | 2.6 | 0.00 | 0.03 | 0.00 | 91 | 1015.8 |
| 20260831233002 | 64 | 142 | 0.0 | 1.7 | 0.00 | 0.03 | 0.00 | 91 | 1015.8 |
| 20260831232502 | 64 | 142 | 0.0 | 1.7 | 0.00 | 0.03 | 0.00 | 91 | 1016.0 |
| 20260831232100 | 64 | 142 | 0.0 | 1.7 | 0.00 | 0.03 | 0.00 | 91 | 1016.0 |
| 20260831231603 | 64 | 142 | 0.0 | 2.6 | 0.00 | 0.03 | 0.00 | 90 | 1016.0 |
| 20260831231059 | 64 | 142 | 0.0 | 2.6 | 0.00 | 0.03 | 0.00 | 90 | 1016.1 |
| 20260831230558 | 64 | 142 | 0.9 | 2.6 | 0.00 | 0.03 | 0.00 | 90 | 1016.2 |
| 20260831230059 | 64 | 142 | 0.0 | 3.5 | 0.00 | 0.03 | 0.00 | 90 | 1016.2 |
| 20260831225559 | 64 | 142 | 0.9 | 3.5 | 0.00 | 0.03 | 0.00 | 90 | 1016.2 |
| 20260831225100 | 64 | 148 | 0.9 | 2.6 | 0.00 | 0.03 | 0.00 | 90 | 1016.2 |
| 20260831224558 | 64 | 148 | 0.9 | 2.6 | 0.00 | 0.03 | 0.00 | 90 | 1016.2 |
| 20260831224057 | 64 | 148 | 0.9 | 2.6 | 0.00 | 0.03 | 0.00 | 89 | 1016.2 |
| 20260831223558 | 64 | 149 | 0.0 | 4.3 | 0.00 | 0.03 | 0.00 | 89 | 1016.3 |
| 20260831223100 | 64 | 149 | 0.0 | 1.7 | 0.00 | 0.03 | 0.00 | 89 | 1016.3 |
| 20260831222556 | 64 | 149 | 0.0 | 2.6 | 0.00 | 0.03 | 0.00 | 89 | 1016.4 |
| 20260831222056 | 64 | 149 | 0.9 | 2.6 | 0.00 | 0.03 | 0.00 | 89 | 1016.4 |
| 20260831221556 | 64 | 153 | 1.7 | 4.3 | 0.00 | 0.03 | 0.00 | 89 | 1016.4 |
| 20260831221054 | 64 | 150 | 0.9 | 4.3 | 0.00 | 0.03 | 0.00 | 89 | 1016.4 |
| 20260831220554 | 64 | 169 | 0.0 | 2.6 | 0.00 | 0.03 | 0.00 | 89 | 1016.5 |
| 20260831220054 | 64 | 169 | 0.9 | 2.6 | 0.00 | 0.03 | 0.00 | 88 | 1016.5 |
| 20260831215553 | 64 | 167 | 0.9 | 2.6 | 0.00 | 0.04 | 0.00 | 89 | 1016.6 |
| 20260831215053 | 64 | 147 | 0.0 | 4.3 | 0.00 | 0.04 | 0.00 | 89 | 1016.7 |
| 20260831214604 | 64 | 144 | 1.7 | 4.3 | 0.00 | 0.04 | 0.00 | 89 | 1016.6 |
| 20260831214052 | 64 | 144 | 0.9 | 2.6 | 0.00 | 0.04 | 0.00 | 89 | 1016.6 |
| 20260831213552 | 64 | 141 | 0.9 | 1.7 | 0.00 | 0.04 | 0.00 | 89 | 1016.6 |
| 20260831213100 | 64 | 142 | 0.9 | 2.6 | 0.00 | 0.04 | 0.00 | 89 | 1016.7 |
| 20260831212554 | 64 | 142 | 0.9 | 2.6 | 0.00 | 0.04 | 0.00 | 89 | 1016.6 |
| 20260831212051 | 64 | 142 | 0.0 | 1.7 | 0.00 | 0.04 | 0.00 | 89 | 1016.8 |
| 20260831211551 | 64 | 143 | 0.0 | 1.7 | 0.00 | 0.04 | 0.00 | 89 | 1016.9 |
| 20260831211050 | 64 | 146 | 0.0 | 2.6 | 0.00 | 0.04 | 0.00 | 89 | 1016.8 |
| 20260831210549 | 64 | 146 | 0.9 | 4.3 | 0.00 | 0.04 | 0.00 | 89 | 1016.9 |
| 20260831210049 | 64 | 194 | 1.7 | 4.3 | 0.00 | 0.04 | 0.00 | 88 | 1016.9 |
| 20260831205549 | 64 | 186 | 1.7 | 6.1 | 0.00 | 0.06 | 0.00 | 87 | 1016.9 |
| 20260831205048 | 65 | 198 | 1.7 | 6.1 | 0.00 | 0.06 | 0.00 | 86 | 1017.0 |
| 20260831204554 | 65 | 194 | 1.7 | 5.2 | 0.00 | 0.06 | 0.00 | 86 | 1017.0 |
| 20260831204051 | 65 | 162 | 0.0 | 4.3 | 0.00 | 0.06 | 0.00 | 85 | 1017.0 |
| 20260831203550 | 65 | 163 | 0.9 | 4.3 | 0.00 | 0.06 | 0.00 | 83 | 1017.0 |
| 20260831203058 | 65 | 155 | 0.0 | 4.3 | 0.00 | 0.06 | 0.00 | 82 | 1017.0 |
| 20260831202549 | 66 | 153 | 1.7 | 4.3 | 0.00 | 0.06 | 0.00 | 82 | 1017.0 |
| 20260831202048 | 66 | 100 | 0.0 | 0.9 | 0.00 | 0.06 | 0.00 | 81 | 1017.1 |
| 20260831201556 | 66 | 100 | 0.0 | 0.9 | 0.00 | 0.06 | 0.00 | 81 | 1017.0 |
| 20260831201047 | 65 | 100 | 0.0 | 1.7 | 0.00 | 0.06 | 0.00 | 81 | 1017.0 |
| 20260831200546 | 65 | 100 | 0.9 | 1.7 | 0.00 | 0.06 | 0.00 | 81 | 1017.0 |
| 20260831200046 | 66 | 100 | 0.9 | 1.7 | 0.00 | 0.06 | 0.00 | 80 | 1017.1 |
| 20260831195549 | 66 | 100 | 0.9 | 1.7 | 0.00 | 0.06 | 0.00 | 80 | 1017.1 |
| 20260831195048 | 66 | 100 | 0.9 | 2.6 | 0.00 | 0.06 | 0.00 | 80 | 1017.2 |
| 20260831194546 | 66 | 100 | 0.9 | 2.6 | 0.00 | 0.06 | 0.00 | 80 | 1017.4 |
| 20260831194044 | 66 | 113 | 0.9 | 2.6 | 0.00 | 0.06 | 0.00 | 80 | 1017.3 |
| 20260831193544 | 66 | 113 | 0.9 | 2.6 | 0.00 | 0.06 | 0.00 | 79 | 1017.3 |
| 20260831193113 | 66 | 138 | 0.9 | 2.6 | 0.00 | 0.06 | 0.00 | 79 | 1017.4 |
| 20260831192543 | 66 | 138 | 0.9 | 3.5 | 0.00 | 0.06 | 0.00 | 79 | 1017.5 |
| 20260831192047 | 66 | 138 | 0.9 | 5.2 | 0.00 | 0.06 | 0.00 | 79 | 1017.5 |
| 20260831191543 | 66 | 108 | 0.0 | 5.2 | 0.00 | 0.06 | 0.00 | 79 | 1017.5 |
| 20260831191042 | 66 | 179 | 1.7 | 7.8 | 0.00 | 0.06 | 0.00 | 77 | 1017.6 |
| 20260831190542 | 66 | 146 | 5.2 | 7.8 | 0.00 | 0.06 | 0.00 | 77 | 1017.6 |
| 20260831190046 | 66 | 198 | 2.6 | 6.1 | 0.00 | 0.06 | 0.00 | 77 | 1017.6 |
| 20260831185541 | 67 | 141 | 3.5 | 6.1 | 0.00 | 0.06 | 0.00 | 75 | 1017.7 |
| 20260831185040 | 67 | 157 | 2.6 | 5.2 | 0.00 | 0.06 | 0.00 | 76 | 1017.7 |
| 20260831184540 | 67 | 205 | 2.6 | 5.2 | 0.00 | 0.06 | 0.00 | 74 | 1017.8 |
| 20260831184042 | 67 | 205 | 0.9 | 4.3 | 0.00 | 0.06 | 0.00 | 76 | 1017.8 |
| 20260831183640 | 67 | 212 | 0.9 | 6.1 | 0.00 | 0.06 | 0.00 | 76 | 1017.9 |
| 20260831183044 | 67 | 200 | 3.5 | 6.1 | 0.00 | 0.06 | 0.00 | 77 | 1017.9 |
| 20260831182539 | 67 | 151 | 0.9 | 5.2 | 0.00 | 0.06 | 0.00 | 78 | 1017.9 |
| 20260831182039 | 67 | 189 | 0.0 | 5.2 | 0.00 | 0.06 | 0.00 | 78 | 1018.0 |
| 20260831181550 | 67 | 197 | 2.6 | 4.3 | 0.00 | 0.06 | 0.00 | 76 | 1018.0 |
| 20260831181038 | 67 | 209 | 0.0 | 1.7 | 0.00 | 0.06 | 0.00 | 79 | 1018.2 |
| 20260831180538 | 67 | 208 | 0.9 | 3.5 | 0.00 | 0.06 | 0.00 | 79 | 1018.1 |
| 20260831180039 | 67 | 208 | 0.0 | 3.5 | 0.00 | 0.06 | 0.00 | 79 | 1018.2 |
| 20260831175541 | 67 | 221 | 0.9 | 3.5 | 0.00 | 0.06 | 0.00 | 80 | 1018.2 |
| 20260831175037 | 67 | 227 | 0.9 | 7.0 | 0.00 | 0.06 | 0.00 | 80 | 1018.2 |
| 20260831174537 | 67 | 217 | 0.0 | 7.0 | 0.00 | 0.06 | 0.00 | 80 | 1018.2 |
| 20260831174038 | 67 | 190 | 0.9 | 7.0 | 0.00 | 0.06 | 0.00 | 81 | 1018.3 |
| 20260831173539 | 67 | 202 | 0.9 | 5.2 | 0.00 | 0.06 | 0.00 | 81 | 1018.3 |
| 20260831173036 | 67 | 209 | 0.9 | 5.2 | 0.00 | 0.06 | 0.00 | 80 | 1018.3 |
| 20260831172536 | 67 | 167 | 2.6 | 7.0 | 0.00 | 0.06 | 0.00 | 80 | 1018.4 |
| 20260831172036 | 67 | 238 | 1.7 | 9.6 | 0.00 | 0.06 | 0.00 | 80 | 1018.4 |
| 20260831171536 | 67 | 213 | 3.5 | 9.6 | 0.00 | 0.06 | 0.00 | 79 | 1018.5 |
| 20260831171035 | 67 | 195 | 3.5 | 5.2 | 0.00 | 0.06 | 0.00 | 79 | 1018.4 |
| 20260831170537 | 67 | 188 | 0.9 | 4.3 | 0.00 | 0.06 | 0.00 | 79 | 1018.6 |
| 20260831170036 | 67 | 194 | 0.9 | 5.2 | 0.00 | 0.06 | 0.00 | 79 | 1018.6 |
| 20260831165534 | 67 | 197 | 2.6 | 5.2 | 0.00 | 0.06 | 0.00 | 78 | 1018.6 |
| 20260831165034 | 67 | 131 | 1.7 | 7.0 | 0.00 | 0.06 | 0.00 | 78 | 1018.6 |
| 20260831164549 | 67 | 133 | 2.6 | 7.0 | 0.00 | 0.06 | 0.00 | 78 | 1018.8 |
| 20260831164034 | 67 | 184 | 3.5 | 7.8 | 0.00 | 0.06 | 0.00 | 78 | 1018.8 |
| 20260831163534 | 67 | 137 | 3.5 | 7.0 | 0.00 | 0.06 | 0.00 | 78 | 1018.6 |
| 20260831163033 | 67 | 198 | 3.5 | 6.1 | 0.00 | 0.06 | 0.00 | 78 | 1018.7 |
| 20260831162534 | 67 | 128 | 2.6 | 6.1 | 0.00 | 0.06 | 0.00 | 79 | 1018.6 |
| 20260831162036 | 66 | 134 | 1.7 | 6.1 | 0.00 | 0.06 | 0.00 | 79 | 1018.6 |
| 20260831161551 | 66 | 132 | 2.6 | 7.0 | 0.00 | 0.06 | 0.00 | 79 | 1018.7 |
| 20260831161031 | 66 | 186 | 3.5 | 7.0 | 0.00 | 0.06 | 0.00 | 79 | 1018.7 |
| 20260831160533 | 66 | 155 | 2.6 | 7.0 | 0.00 | 0.06 | 0.00 | 78 | 1018.7 |
| 20260831160034 | 66 | 157 | 3.5 | 8.7 | 0.00 | 0.06 | 0.00 | 77 | 1018.9 |
| 20260831155532 | 66 | 143 | 4.3 | 8.7 | 0.00 | 0.06 | 0.00 | 77 | 1018.8 |
| 20260831155032 | 66 | 138 | 3.5 | 7.0 | 0.00 | 0.06 | 0.00 | 77 | 1018.9 |
| 20260831154531 | 66 | 148 | 3.5 | 7.8 | 0.00 | 0.06 | 0.00 | 78 | 1019.0 |
| 20260831154031 | 66 | 132 | 3.5 | 7.8 | 0.00 | 0.06 | 0.00 | 78 | 1018.8 |
| 20260831153530 | 66 | 207 | 2.6 | 7.0 | 0.00 | 0.06 | 0.00 | 78 | 1018.9 |
| 20260831153030 | 66 | 120 | 2.6 | 7.8 | 0.00 | 0.06 | 0.00 | 78 | 1018.9 |
| 20260831152534 | 66 | 146 | 3.5 | 7.8 | 0.00 | 0.06 | 0.00 | 78 | 1018.8 |
| 20260831152029 | 66 | 135 | 3.5 | 7.0 | 0.00 | 0.06 | 0.00 | 84 | 1018.8 |
| 20260831151529 | 66 | 186 | 2.6 | 7.0 | 0.00 | 0.06 | 0.00 | 80 | 1018.9 |
| 20260831151030 | 66 | 138 | 0.9 | 4.3 | 0.00 | 0.06 | 0.00 | 82 | 1018.9 |
| 20260831150527 | 66 | 203 | 1.7 | 5.2 | 0.00 | 0.06 | 0.00 | 82 | 1019.0 |
| 20260831150028 | 66 | 147 | 0.9 | 5.2 | 0.00 | 0.06 | 0.00 | 82 | 1019.0 |
| 20260831145528 | 66 | 167 | 2.6 | 5.2 | 0.00 | 0.06 | 0.00 | 82 | 1019.0 |
| 20260831145027 | 66 | 188 | 2.6 | 6.1 | 0.00 | 0.06 | 0.00 | 81 | 1019.0 |
| 20260831144528 | 66 | 164 | 3.5 | 6.1 | 0.00 | 0.06 | 0.00 | 81 | 1019.0 |
| 20260831144027 | 66 | 168 | 2.6 | 7.0 | 0.00 | 0.06 | 0.00 | 79 | 1019.0 |
| 20260831143530 | 66 | 151 | 3.5 | 7.0 | 0.00 | 0.06 | 0.00 | 79 | 1019.0 |
| 20260831143027 | 66 | 165 | 2.6 | 5.2 | 0.00 | 0.06 | 0.00 | 81 | 1018.8 |
| 20260831142527 | 66 | 169 | 2.6 | 4.3 | 0.00 | 0.06 | 0.00 | 81 | 1018.7 |
| 20260831142026 | 66 | 175 | 1.7 | 4.3 | 0.00 | 0.06 | 0.00 | 82 | 1018.7 |
| 20260831141531 | 66 | 141 | 1.7 | 5.2 | 0.00 | 0.06 | 0.00 | 82 | 1018.8 |
| 20260831141024 | 66 | 142 | 2.6 | 6.1 | 0.00 | 0.06 | 0.00 | 83 | 1018.7 |
| 20260831140524 | 65 | 139 | 3.5 | 7.8 | 0.00 | 0.06 | 0.00 | 83 | 1018.7 |
| 20260831140023 | 65 | 135 | 4.3 | 7.8 | 0.00 | 0.06 | 0.00 | 83 | 1018.6 |
| 20260831135523 | 65 | 148 | 2.6 | 7.0 | 0.00 | 0.06 | 0.00 | 86 | 1018.5 |
| 20260831135022 | 65 | 140 | 2.6 | 5.2 | 0.00 | 0.06 | 0.00 | 87 | 1018.6 |
| 20260831134520 | 65 | 131 | 2.6 | 5.2 | 0.00 | 0.06 | 0.00 | 87 | 1018.8 |
| 20260831134021 | 64 | 136 | 1.7 | 3.5 | 0.00 | 0.06 | 0.00 | 88 | 1018.8 |
| 20260831133519 | 64 | 128 | 0.9 | 3.5 | 0.00 | 0.06 | 0.00 | 88 | 1018.9 |
| 20260831133019 | 64 | 104 | 0.9 | 2.6 | 0.00 | 0.06 | 0.00 | 88 | 1018.9 |
| 20260831132519 | 64 | 111 | 0.9 | 2.6 | 0.00 | 0.06 | 0.00 | 89 | 1019.0 |
| 20260831132020 | 64 | 99 | 0.9 | 3.5 | 0.00 | 0.06 | 0.00 | 90 | 1019.0 |
| 20260831131525 | 64 | 134 | 1.7 | 4.3 | 0.00 | 0.06 | 0.00 | 91 | 1018.9 |
| 20260831131017 | 64 | 145 | 1.7 | 4.3 | 0.00 | 0.06 | 0.00 | 91 | 1018.8 |
| 20260831130517 | 63 | 150 | 1.7 | 3.5 | 0.00 | 0.06 | 0.00 | 91 | 1018.8 |
| 20260831130023 | 63 | 132 | 0.9 | 2.6 | 0.00 | 0.06 | 0.00 | 91 | 1019.1 |
| 20260831125516 | 63 | 187 | 0.0 | 1.7 | 0.00 | 0.06 | 0.00 | 92 | 1019.1 |
| 20260831125017 | 63 | 188 | 0.0 | 1.7 | 0.00 | 0.06 | 0.00 | 92 | 1018.9 |
| 20260831124516 | 63 | 190 | 0.0 | 1.7 | 0.00 | 0.06 | 0.00 | 92 | 1018.8 |
| 20260831124015 | 63 | 190 | 0.0 | 0.9 | 0.00 | 0.06 | 0.00 | 92 | 1018.8 |
| 20260831123514 | 63 | 190 | 0.0 | 0.9 | 0.00 | 0.06 | 0.00 | 92 | 1018.8 |
| 20260831123021 | 63 | 190 | 0.0 | 0.0 | 0.00 | 0.06 | 0.00 | 92 | 1018.9 |
| 20260831122514 | 63 | 190 | 0.0 | 1.7 | 0.00 | 0.06 | 0.00 | 92 | 1019.0 |
| 20260831122015 | 62 | 190 | 0.0 | 2.6 | 0.00 | 0.06 | 0.00 | 92 | 1018.9 |
| 20260831121520 | 62 | 190 | 0.0 | 1.7 | 0.00 | 0.06 | 0.00 | 92 | 1018.9 |
| 20260831121013 | 62 | 190 | 0.0 | 3.5 | 0.00 | 0.06 | 0.00 | 93 | 1018.8 |
| 20260831120517 | 62 | 192 | 1.7 | 3.5 | 0.00 | 0.06 | 0.00 | 93 | 1018.9 |
| 20260831120014 | 63 | 205 | 0.0 | 2.6 | 0.00 | 0.06 | 0.00 | 93 | 1018.9 |
| 20260831115512 | 63 | 223 | 0.0 | 1.7 | 0.00 | 0.06 | 0.00 | 93 | 1019.0 |
| 20260831115011 | 63 | 224 | 0.0 | 0.0 | 0.00 | 0.06 | 0.00 | 93 | 1019.0 |
| 20260831114510 | 62 | 224 | 0.0 | 0.0 | 0.00 | 0.06 | 0.00 | 94 | 1019.2 |
| 20260831114009 | 62 | 232 | 0.0 | 0.0 | 0.00 | 0.06 | 0.00 | 94 | 1019.2 |
| 20260831113509 | 62 | 175 | 0.0 | 0.0 | 0.00 | 0.06 | 0.00 | 94 | 1019.2 |
| 20260831113010 | 62 | 175 | 0.0 | 0.0 | 0.00 | 0.06 | 0.00 | 94 | 1019.1 |
| 20260831112507 | 62 | 175 | 0.0 | 0.0 | 0.00 | 0.06 | 0.00 | 94 | 1019.1 |
| 20260831112005 | 62 | 175 | 0.0 | 0.0 | 0.00 | 0.06 | 0.00 | 94 | 1019.1 |
| 20260831111505 | 62 | 175 | 0.0 | 0.0 | 0.00 | 0.06 | 0.00 | 94 | 1018.8 |
| 20260831111004 | 61 | 175 | 0.0 | 0.0 | 0.00 | 0.06 | 0.00 | 94 | 1018.8 |
| 20260831110504 | 61 | 175 | 0.0 | 0.0 | 0.00 | 0.06 | 0.00 | 94 | 1018.8 |
| 20260831110004 | 61 | 175 | 0.0 | 0.0 | 0.00 | 0.06 | 0.00 | 94 | 1018.8 |
| 20260831105507 | 61 | 175 | 0.0 | 0.0 | 0.00 | 0.06 | 0.00 | 94 | 1018.7 |
| 20260831105004 | 61 | 175 | 0.0 | 0.0 | 0.00 | 0.06 | 0.00 | 94 | 1018.5 |
| 20260831104513 | 61 | 175 | 0.0 | 0.0 | 0.00 | 0.06 | 0.00 | 94 | 1018.6 |
| 20260831104003 | 61 | 175 | 0.0 | 0.0 | 0.00 | 0.06 | 0.00 | 94 | 1018.6 |
| 20260831103503 | 61 | 198 | 0.0 | 0.0 | 0.00 | 0.06 | 0.00 | 94 | 1018.4 |
| 20260831103013 | 61 | 198 | 0.0 | 1.7 | 0.00 | 0.06 | 0.00 | 94 | 1018.3 |
| 20260831102505 | 61 | 200 | 0.0 | 1.7 | 0.00 | 0.06 | 0.00 | 94 | 1018.4 |
| 20260831102003 | 61 | 197 | 0.0 | 2.6 | 0.00 | 0.06 | 0.00 | 94 | 1018.3 |
| 20260831101503 | 61 | 193 | 0.9 | 2.6 | 0.00 | 0.06 | 0.00 | 94 | 1018.4 |
| 20260831101001 | 61 | 193 | 0.9 | 2.6 | 0.00 | 0.06 | 0.00 | 94 | 1018.3 |
| 20260831100501 | 61 | 194 | 0.0 | 2.6 | 0.00 | 0.06 | 0.00 | 94 | 1018.3 |
| 20260831100001 | 61 | 195 | 0.0 | 1.7 | 0.00 | 0.06 | 0.00 | 94 | 1018.3 |
| 20260831095501 | 61 | 195 | 0.0 | 3.5 | 0.00 | 0.06 | 0.00 | 94 | 1018.2 |
| 20260831095001 | 61 | 195 | 0.0 | 3.5 | 0.00 | 0.06 | 0.00 | 94 | 1018.2 |
| 20260831094501 | 61 | 225 | 0.0 | 0.0 | 0.00 | 0.06 | 0.00 | 94 | 1018.1 |
| 20260831094001 | 61 | 230 | 0.0 | 0.0 | 0.00 | 0.06 | 0.00 | 94 | 1018.1 |
| 20260831093601 | 61 | 230 | 0.0 | 2.6 | 0.00 | 0.06 | 0.00 | 94 | 1018.1 |
| 20260831093113 | 61 | 240 | 0.9 | 2.6 | 0.00 | 0.06 | 0.00 | 94 | 1018.1 |
| 20260831092600 | 61 | 242 | 0.9 | 2.6 | 0.00 | 0.06 | 0.00 | 94 | 1018.2 |
| 20260831092059 | 61 | 254 | 0.0 | 2.6 | 0.00 | 0.06 | 0.00 | 94 | 1018.3 |
| 20260831091602 | 61 | 274 | 0.0 | 0.0 | 0.00 | 0.06 | 0.00 | 94 | 1018.3 |
| 20260831091059 | 61 | 302 | 0.0 | 0.0 | 0.00 | 0.06 | 0.00 | 94 | 1018.1 |
| 20260831090600 | 61 | 302 | 0.0 | 0.0 | 0.00 | 0.06 | 0.00 | 94 | 1018.1 |
| 20260831090123 | 61 | 360 | 0.0 | 0.0 | 0.00 | 0.06 | 0.00 | 94 | 1018.1 |
| 20260831085559 | 61 | 274 | 0.0 | 0.0 | 0.00 | 0.06 | 0.00 | 94 | 1018.1 |
| 20260831085100 | 61 | 303 | 0.0 | 0.0 | 0.00 | 0.06 | 0.00 | 94 | 1018.0 |
| 20260831084557 | 61 | 303 | 0.0 | 0.0 | 0.00 | 0.06 | 0.00 | 94 | 1018.0 |
| 20260831084101 | 61 | 303 | 0.0 | 0.0 | 0.00 | 0.06 | 0.00 | 94 | 1018.2 |
| 20260831083557 | 61 | 303 | 0.0 | 0.0 | 0.00 | 0.06 | 0.00 | 94 | 1018.0 |
| 20260831083109 | 61 | 303 | 0.0 | 0.0 | 0.00 | 0.06 | 0.00 | 94 | 1018.0 |
| 20260831082557 | 61 | 303 | 0.0 | 0.0 | 0.00 | 0.06 | 0.00 | 94 | 1018.1 |
| 20260831082057 | 61 | 360 | 0.0 | 0.0 | 0.00 | 0.06 | 0.00 | 94 | 1018.0 |
| 20260831081601 | 61 | 360 | 0.0 | 0.0 | 0.00 | 0.06 | 0.00 | 94 | 1018.0 |
| 20260831081056 | 61 | 360 | 0.0 | 0.0 | 0.00 | 0.06 | 0.00 | 94 | 1017.9 |
| 20260831080558 | 61 | 360 | 0.0 | 0.0 | 0.00 | 0.06 | 0.00 | 94 | 1018.1 |
| 20260831080126 | 61 | 303 | 0.0 | 0.0 | 0.00 | 0.06 | 0.00 | 94 | 1018.1 |
| 20260831075556 | 61 | 303 | 0.0 | 0.0 | 0.00 | 0.06 | 0.00 | 94 | 1018.1 |
| 20260831075055 | 61 | 303 | 0.0 | 0.0 | 0.00 | 0.06 | 0.00 | 94 | 1018.1 |
| 20260831074555 | 61 | 303 | 0.0 | 0.0 | 0.00 | 0.06 | 0.00 | 94 | 1018.0 |
| 20260831074056 | 61 | 303 | 0.0 | 0.0 | 0.00 | 0.06 | 0.00 | 94 | 1018.1 |
| 20260831073555 | 61 | 303 | 0.0 | 1.7 | 0.00 | 0.06 | 0.00 | 94 | 1018.1 |
| 20260831073055 | 61 | 303 | 0.0 | 1.7 | 0.00 | 0.06 | 0.00 | 94 | 1018.1 |
| 20260831072554 | 61 | 303 | 0.0 | 1.7 | 0.00 | 0.06 | 0.00 | 94 | 1018.1 |
| 20260831072053 | 62 | 302 | 0.0 | 1.7 | 0.00 | 0.06 | 0.00 | 94 | 1018.1 |
| 20260831071555 | 62 | 302 | 0.0 | 2.6 | 0.00 | 0.06 | 0.00 | 94 | 1018.1 |
| 20260831071053 | 62 | 302 | 0.0 | 3.5 | 0.00 | 0.06 | 0.00 | 94 | 1018.1 |
| 20260831070553 | 62 | 303 | 0.0 | 3.5 | 0.00 | 0.06 | 0.00 | 94 | 1018.0 |
| 20260831070053 | 62 | 302 | 0.0 | 1.7 | 0.00 | 0.06 | 0.00 | 94 | 1018.0 |
| 20260831065552 | 62 | 302 | 0.0 | 2.6 | 0.00 | 0.06 | 0.00 | 94 | 1017.9 |
| 20260831065052 | 62 | 302 | 0.9 | 2.6 | 0.00 | 0.06 | 0.00 | 94 | 1017.8 |
| 20260831064552 | 62 | 309 | 0.0 | 0.0 | 0.00 | 0.06 | 0.00 | 94 | 1017.8 |
| 20260831064051 | 62 | 309 | 0.0 | 0.0 | 0.00 | 0.06 | 0.00 | 94 | 1017.9 |
| 20260831063551 | 62 | 309 | 0.0 | 0.0 | 0.00 | 0.06 | 0.00 | 94 | 1017.8 |
| 20260831063107 | 62 | 309 | 0.0 | 0.0 | 0.00 | 0.06 | 0.00 | 94 | 1017.9 |
| 20260831062550 | 62 | 309 | 0.0 | 0.0 | 0.00 | 0.06 | 0.00 | 94 | 1018.0 |
| 20260831062052 | 62 | 309 | 0.0 | 0.0 | 0.00 | 0.06 | 0.00 | 94 | 1018.0 |
| 20260831061550 | 62 | 309 | 0.0 | 0.0 | 0.00 | 0.06 | 0.00 | 94 | 1018.1 |
| 20260831061048 | 62 | 309 | 0.0 | 0.0 | 0.00 | 0.06 | 0.00 | 94 | 1018.1 |
| 20260831060548 | 62 | 309 | 0.0 | 0.0 | 0.00 | 0.06 | 0.00 | 94 | 1018.2 |
| 20260831060049 | 62 | 309 | 0.0 | 0.0 | 0.00 | 0.06 | 0.00 | 94 | 1018.2 |
| 20260831055547 | 62 | 309 | 0.0 | 0.0 | 0.00 | 0.06 | 0.00 | 94 | 1018.3 |
| 20260831055047 | 62 | 310 | 0.0 | 0.0 | 0.00 | 0.06 | 0.00 | 94 | 1018.3 |
| 20260831054547 | 62 | 310 | 0.0 | 0.0 | 0.00 | 0.06 | 0.00 | 94 | 1018.4 |
| 20260831054047 | 62 | 310 | 0.0 | 0.0 | 0.00 | 0.06 | 0.00 | 94 | 1018.4 |
| 20260831053547 | 62 | 310 | 0.0 | 0.0 | 0.00 | 0.00 | 0.00 | 94 | 1018.5 |
| 20260831053122 | 62 | 310 | 0.0 | 0.0 | 0.00 | 0.06 | 0.00 | 94 | 1018.5 |
| 20260831052548 | 62 | 310 | 0.0 | 0.0 | 0.00 | 0.06 | 0.00 | 94 | 1018.5 |
| 20260831052046 | 62 | 310 | 0.0 | 0.0 | 0.00 | 0.06 | 0.00 | 94 | 1018.4 |
| 20260831051546 | 62 | 310 | 0.0 | 0.0 | 0.00 | 0.06 | 0.00 | 94 | 1018.4 |
| 20260831051045 | 62 | 310 | 0.0 | 0.0 | 0.00 | 0.06 | 0.00 | 94 | 1018.3 |
| 20260831050545 | 62 | 310 | 0.0 | 0.9 | 0.00 | 0.06 | 0.00 | 94 | 1018.2 |
| 20260831050044 | 62 | 310 | 0.0 | 2.6 | 0.00 | 0.06 | 0.00 | 94 | 1018.3 |
| 20260831045544 | 62 | 310 | 0.0 | 2.6 | 0.00 | 0.06 | 0.00 | 94 | 1018.3 |
| 20260831045043 | 62 | 309 | 0.0 | 2.6 | 0.00 | 0.06 | 0.00 | 93 | 1018.4 |
| 20260831044635 | 62 | 309 | 0.9 | 3.5 | 0.00 | 0.06 | 0.00 | 93 | 1018.4 |
| 20260831044042 | 62 | 309 | 1.7 | 3.5 | 0.00 | 0.06 | 0.00 | 93 | 1018.5 |
| 20260831043542 | 62 | 284 | 0.9 | 2.6 | 0.00 | 0.06 | 0.00 | 93 | 1018.7 |
| 20260831043042 | 62 | 304 | 0.9 | 2.6 | 0.01 | 0.06 | 0.00 | 93 | 1018.7 |
| 20260831042541 | 62 | 303 | 0.9 | 3.5 | 0.01 | 0.06 | 0.00 | 94 | 1018.7 |
| 20260831042041 | 62 | 291 | 0.9 | 3.5 | 0.02 | 0.06 | 0.00 | 93 | 1018.6 |
| 20260831041544 | 62 | 286 | 0.0 | 1.7 | 0.02 | 0.06 | 0.00 | 93 | 1018.7 |
| 20260831041040 | 62 | 285 | 0.0 | 0.0 | 0.02 | 0.06 | 0.00 | 93 | 1018.6 |
| 20260831040540 | 62 | 284 | 0.0 | 0.0 | 0.02 | 0.06 | 0.00 | 93 | 1018.6 |
| 20260831040039 | 62 | 284 | 0.0 | 1.7 | 0.02 | 0.06 | 0.00 | 93 | 1018.7 |
| 20260831035539 | 62 | 284 | 0.0 | 3.5 | 0.02 | 0.06 | 0.06 | 93 | 1018.7 |
| 20260831035039 | 62 | 284 | 0.0 | 3.5 | 0.03 | 0.06 | 0.06 | 93 | 1018.8 |
| 20260831034538 | 62 | 302 | 0.0 | 2.6 | 0.03 | 0.06 | 0.06 | 93 | 1018.8 |
| 20260831034038 | 62 | 298 | 0.0 | 3.5 | 0.03 | 0.06 | 0.06 | 93 | 1018.8 |
| 20260831033538 | 62 | 298 | 0.9 | 3.5 | 0.03 | 0.06 | 0.06 | 93 | 1018.7 |
| 20260831033052 | 62 | 273 | 0.0 | 0.0 | 0.02 | 0.05 | 0.05 | 93 | 1018.7 |
| 20260831032540 | 62 | 270 | 0.0 | 3.5 | 0.02 | 0.05 | 0.05 | 93 | 1018.7 |
| 20260831032036 | 62 | 270 | 0.0 | 3.5 | 0.01 | 0.04 | 0.04 | 93 | 1018.8 |
| 20260831031538 | 62 | 290 | 0.0 | 0.0 | 0.01 | 0.04 | 0.04 | 93 | 1018.8 |
| 20260831031036 | 62 | 360 | 0.0 | 0.0 | 0.01 | 0.04 | 0.04 | 93 | 1018.7 |
| 20260831030536 | 62 | 360 | 0.0 | 0.9 | 0.01 | 0.04 | 0.04 | 93 | 1018.6 |
| 20260831030036 | 62 | 296 | 0.0 | 2.6 | 0.01 | 0.04 | 0.04 | 93 | 1018.6 |
| 20260831025536 | 62 | 300 | 0.0 | 2.6 | 0.01 | 0.04 | 0.04 | 93 | 1018.7 |
| 20260831025037 | 62 | 293 | 0.0 | 1.7 | 0.00 | 0.03 | 0.03 | 93 | 1018.6 |
| 20260831024536 | 62 | 293 | 0.0 | 3.5 | 0.00 | 0.03 | 0.03 | 93 | 1018.6 |
| 20260831024038 | 62 | 293 | 0.9 | 4.3 | 0.00 | 0.03 | 0.03 | 93 | 1018.6 |
| 20260831023535 | 62 | 281 | 0.9 | 4.3 | 0.00 | 0.03 | 0.03 | 93 | 1018.6 |
| 20260831023035 | 62 | 264 | 0.0 | 5.2 | 0.00 | 0.03 | 0.03 | 93 | 1018.5 |
| 20260831022536 | 62 | 271 | 0.9 | 5.2 | 0.00 | 0.03 | 0.03 | 93 | 1018.4 |
| 20260831022035 | 62 | 298 | 1.7 | 4.3 | 0.00 | 0.03 | 0.03 | 93 | 1018.4 |
| 20260831021535 | 62 | 294 | 0.9 | 5.2 | 0.00 | 0.03 | 0.03 | 93 | 1018.5 |
| 20260831021035 | 62 | 290 | 0.0 | 4.3 | 0.00 | 0.03 | 0.03 | 93 | 1018.4 |
| 20260831020535 | 62 | 288 | 0.9 | 4.3 | 0.00 | 0.03 | 0.03 | 93 | 1018.4 |
| 20260831020035 | 62 | 293 | 1.7 | 5.2 | 0.00 | 0.03 | 0.03 | 93 | 1018.4 |
| 20260831015534 | 62 | 297 | 0.0 | 6.1 | 0.00 | 0.03 | 0.03 | 93 | 1018.3 |
| 20260831015034 | 62 | 304 | 1.7 | 6.1 | 0.00 | 0.03 | 0.03 | 93 | 1018.4 |
| 20260831014534 | 62 | 259 | 0.0 | 3.5 | 0.00 | 0.03 | 0.03 | 93 | 1018.4 |
| 20260831014034 | 62 | 269 | 0.9 | 4.3 | 0.00 | 0.03 | 0.03 | 93 | 1018.4 |
| 20260831013533 | 62 | 252 | 0.9 | 4.3 | 0.00 | 0.03 | 0.03 | 93 | 1018.5 |
| 20260831013036 | 62 | 249 | 0.0 | 3.5 | 0.00 | 0.03 | 0.03 | 93 | 1018.5 |
| 20260831012534 | 62 | 299 | 0.0 | 4.3 | 0.00 | 0.03 | 0.03 | 93 | 1018.5 |
| 20260831012034 | 62 | 304 | 0.0 | 4.3 | 0.00 | 0.03 | 0.03 | 93 | 1018.5 |
| 20260831011533 | 62 | 302 | 0.9 | 3.5 | 0.00 | 0.03 | 0.03 | 93 | 1018.5 |
| 20260831011032 | 62 | 267 | 0.9 | 4.3 | 0.00 | 0.03 | 0.03 | 93 | 1018.4 |
| 20260831010532 | 62 | 290 | 0.0 | 7.0 | 0.00 | 0.03 | 0.03 | 93 | 1018.3 |
| 20260831010053 | 62 | 306 | 0.9 | 7.0 | 0.00 | 0.03 | 0.03 | 93 | 1018.3 |
| 20260831005532 | 62 | 360 | 1.7 | 3.5 | 0.00 | 0.03 | 0.03 | 93 | 1018.2 |
| 20260831005032 | 62 | 298 | 0.9 | 4.3 | 0.00 | 0.03 | 0.03 | 93 | 1018.2 |
| 20260831004532 | 62 | 287 | 0.9 | 5.2 | 0.00 | 0.03 | 0.03 | 93 | 1018.0 |
| 20260831004032 | 62 | 292 | 1.7 | 5.2 | 0.00 | 0.03 | 0.03 | 92 | 1018.0 |
| 20260831003531 | 62 | 288 | 1.7 | 4.3 | 0.00 | 0.03 | 0.03 | 92 | 1017.9 |
| 20260831003034 | 62 | 360 | 0.9 | 3.5 | 0.00 | 0.03 | 0.03 | 92 | 1017.8 |
| 20260831002531 | 62 | 288 | 0.9 | 4.3 | 0.00 | 0.03 | 0.03 | 92 | 1017.7 |
| 20260831002031 | 62 | 296 | 1.7 | 7.0 | 0.00 | 0.03 | 0.03 | 92 | 1017.5 |
| 20260831001531 | 62 | 297 | 0.9 | 7.0 | 0.00 | 0.03 | 0.03 | 92 | 1017.4 |
| 20260831001031 | 62 | 282 | 0.9 | 3.5 | 0.00 | 0.03 | 0.03 | 92 | 1017.3 |
| 20260831000530 | 62 | 275 | 0.9 | 4.3 | 0.00 | 0.03 | 0.03 | 92 | 1017.2 |
| 20260831000030 | 62 | 266 | 1.7 | 6.1 | 0.00 | 0.03 | 0.03 | 92 | 1017.2 |
| 20260830235530 | 62 | 298 | 1.7 | 6.1 | 0.00 | 0.03 | 0.03 | 92 | 1017.0 |
| 20260830235029 | 62 | 299 | 0.0 | 4.3 | 0.00 | 0.03 | 0.03 | 92 | 1017.0 |